SCP
0 0 0 0 0 0 0 0 0 0 0 0 0 0 0 0 0 0 0 0 0 0 0 0 0 0 0 0 0 0 0 0 0 0 0 0 0 0 0 0 0 0 0
0 0 0 0 0 0 0 0 0 0 0 0 0 0 0 0 0 0 0 0 0 0 0 0 0 0 0 0 0 0 0 0 0 0 0 0 0 0 0 0 0 0 0
0 0 0 0 0 0 0 0 0 0 0 0 0 0 0 0 0 0 0 0 0 0 0 0 0 0 0 0 0 0 0 0 0 0 0 0 0 0 0 0 0 0 0
0 0 0 0 0 0 0 0 0 0 0 0 0 0 0 0 0 0 0 0 0 0 0 0 0 0 0 0 0 0 0 0 0 0 0 0 0 0 0 0 0 0 0
0 0 0 0 0 0 0 0 0 0 0 0 0 0 0 0 0 0 0 0 0 0 0 0 0 0 0 0 0 0 0 0 0 0 0 0 0 0 0 0 0 0 0
0 0 0 0 0 0 0 0 0 0 0 0 0 0 0 0 0 0 0 0 0 0 0 0 0 0 0 0 0 0 0 0 0 0 0 0 0 0 0 0 0 0 0
0 0 0 0 0 0 0 0 0 0 0 0 0 0 0 0 0 0 0 0 0 0 0 0 0 0 0 0 0 0 0 0 0 0 0 0 0 0 0 0 0 0 0
0 0 0 0 0 0 0 0 0 0 0 0 0 0 0 0 0 0 0 0 0 0 0 0 0 0 0 0 0 0 0 0 0 0 0 0 0 0 0 0 0 0 0
0 0 0 0 0 0 0 0 0 0 0 0 0 0 0 0 0 0 0 0 0 0 0 0 0 0 0 0 0 0 0 0 0 0 0 0 0 0 0 0 0 0 0
0 0 0 0 0 0 0 0 0 0 0 0 0 0 0 0 0 0 0 0 0 0 0 0 0 0 0 0 0 0 0 0 0 0 0 0 0 0 0 0 0 0 0
0 0 0 0 0 0 0 0 0 0 0 0 0 0 0 0 0 0 0 0 0 0 0 0 0 0 0 0 0 0 0 0 0 0 0 0 0 0 0 0 0 0 0
0 0 0 0 0 0 0 0 0 0 0 0 0 0 0 0 0 0 0 0 0 0 0 0 0 0 0 0 0 0 0 0 0 0 0 0 0 0 0 0 0 0 0
0 0 0 0 0 0 0 0 0 0 0 0 0 0 0 0 0 0 0 0 0 0 0 0 0 0 0 0 0 0 0 0 0 0 0 0 0 0 0 0 0 0 0
0 0 0 0 0 0 0 0 0 0 0 0 0 0 0 0 0 0 0 0 0 0 0 0 0 0 0 0 0 0 0 0 0 0 0 0 0 0 0 0 0 0 0
0 0 0 0 0 0 0 0 0 0 0 0 0 0 0 0 0 0 0 0 0 0 0 0 0 0 0 0 0 0 0 0 0 0 0 0 0 0 0 0 0 0 0
0 0 0 0 0 0 0 0 0 0 0 0 0 0 0 0 0 0 0 0 0 0 0 0 0 0 0 0 0 0 0 0 0 0 0 0 0 0 0 0 0 0 0
0 0 0 0 0 0 0 0 0 0 0 0 0 0 0 0 0 0 0 0 0 0 0 0 0 0 0 0 0 0 0 0 0 0 0 0 0 0 0 0 0 0 0
0 0 0 0 0 0 0 0 0 0 0 0 0 0 0 0 0 0 0 0 0 0 0 0 0 0 0 0 0 0 0 0 0 0 0 0 0 0 0 0 0 0 0
0 0 0 0 0 0 0 0 0 0 0 0 0 0 0 0 0 0 0 0 0 0 0 0 0 0 0 0 0 0 0 0 0 0 0 0 0 0 0 0 0 0 0
0 0 0 0 0 0 0 0 0 0 0 0 0 0 0 0 0 0 0 0 0 0 0 0 0 0 0 0 0 0 0 0 0 0 0 0 0 0 0 0 0 0 0
0 0 0 0 0 0 0 0 0 0 0 0 0 0 0 0 0 0 0 0 0 0 0 0 0 0 0 0 0 0 0 0 0 0 0 0 0 0 0 0 0 0 0
0 0 0 0 0 0 0 0 0 0 0 0 0 0 0 0 0 0 0 0 0 0 0 0 0 0 0 0 0 0 0 0 0 0 0 0 0 0 0 0 0 0 0
0 0 0 0 0 0 0 0 0 0 0 0 0 0 0 0 0 0 0 0 0 0 0 0 0 0 0 0 0 0 0 0 0 0 0 0 0 0 0 0 0 0 0
0 0 0 0 0 0 0 0 0 0 0 0 0 0 0 0 0 0 0 0 0 0 0 0 0 0 0 0 0 0 0 0 0 0 0 0 0 0 0 0 0 0 0
0 0 0 0 0 0 0 0 0 0 0 0 0 0 0 0 0 0 0 0 0 0 0 0 0 0 0 0 0 0 0 0 0 0 0 0 0 0 0 0 0 0 0
0 0 0 0 0 0 0 0 0 0 0 0 0 0 0 0 0 0 0 0 0 0 0 0 0 0 0 0 0 0 0 0 0 0 0 0 0 0 0 0 0 0 0
Wind_Speed
4 3 2 2 1 1 2 2 3 4 5 5 5 6 6 6 6 6 6 6 6 6 5 6 5 5 4 3 3 2 2 2 2 1 1 2 3 3 3 2 1 1 1
5 4 3 3 2 1 0 1 1 2 4 5 5 5 6 6 7 7 7 7 7 7 7 7 6 5 5 4 4 3 3 2 3 2 1 1 2 3 3 2 1 1 1
6 6 5 4 3 3 2 1 1 1 2 3 4 5 6 6 6 6 7 7 7 7 7 8 7 7 6 5 5 4 3 2 2 2 1 1 1 2 2 1 1 0 0
6 6 5 5 4 4 3 2 1 0 1 2 3 3 4 5 6 6 6 6 6 6 6 7 7 7 7 7 5 5 4 3 3 2 2 2 2 2 2 2 2 2 1
5 5 5 5 4 4 4 3 2 1 0 1 2 3 3 4 4 6 6 6 6 6 5 5 6 7 7 7 5 5 5 4 3 3 3 2 3 2 3 3 2 2 1
5 5 5 4 4 4 3 3 2 1 1 1 2 3 4 3 6 8 7 6 6 7 6 5 6 7 8 9 9 8 7 6 5 4 3 4 4 4 3 3 3 2 2
5 5 5 5 4 4 4 3 2 2 1 1 2 3 3 4 8 9 9 6 6 6 7 7 5 6 8 6 7 8 5 5 5 4 4 4 4 4 5 3 3 3 2
5 6 6 6 5 4 4 4 3 2 2 2 2 3 3 5 8 9 9 5 5 5 6 7 7 7 7 8 6 5 4 3 4 3 3 2 2 3 5 5 4 3 2
5 5 6 6 5 5 4 4 4 3 3 3 2 3 3 4 8 10 9 4 4 5 6 7 8 8 12 14 8 7 5 4 4 6 6 5 6 6 5 4 4 3 2
5 5 5 5 5 5 5 5 4 3 3 3 3 3 4 4 8 11 11 5 5 5 5 6 10 11 14 15 8 8 7 5 5 4 4 4 3 3 5 4 4 4 2
5 5 5 5 6 5 5 4 4 4 3 4 4 4 4 6 9 12 13 6 7 6 6 6 6 14 15 15 12 7 9 7 6 5 4 3 3 2 2 2 3 3 3
5 6 6 6 6 5 5 5 4 4 4 4 4 4 4 5 7 11 14 13 10 7 7 6 7 15 15 15 11 10 13 10 5 4 4 4 3 3 3 3 3 3 3
5 6 6 6 6 5 5 5 4 4 4 4 4 4 4 4 6 11 14 14 14 7 6 10 12 15 14 11 13 14 11 6 5 4 4 4 4 4 4 3 3 3 3
6 6 6 6 6 6 5 4 4 4 5 5 5 5 4 4 4 4 6 7 10 9 6 10 15 15 11 10 10 8 5 6 6 5 4 3 4 4 4 3 3 3 2
6 6 6 6 6 6 6 5 6 5 6 7 5 5 5 6 7 9 6 6 6 6 6 5 5 6 7 6 5 5 5 6 6 5 5 5 5 4 4 3 3 3 3
6 6 5 5 5 5 6 6 9 10 13 13 12 10 8 10 11 12 13 13 13 13 9 6 7 7 8 8 8 7 7 7 6 5 5 5 5 5 5 4 3 4 4
7 7 5 6 6 6 6 6 7 8 11 12 13 13 12 11 12 11 12 14 15 15 8 7 8 8 8 8 8 8 8 7 6 6 6 6 5 5 5 4 4 4 4
7 8 8 6 6 6 6 6 6 7 7 6 8 12 13 12 12 11 12 10 9 10 6 6 7 7 7 8 8 8 7 7 6 7 6 6 6 6 5 6 6 5 5
7 6 6 6 6 7 6 6 6 7 7 6 5 6 10 11 11 11 10 6 5 6 6 6 6 7 7 7 7 7 8 7 7 7 7 7 7 6 6 6 6 9 7
7 11 10 7 6 6 6 6 7 7 7 6 6 5 4 5 4 5 5 4 4 5 5 6 6 7 7 7 7 7 7 7 8 8 7 7 7 7 7 8 7 6 6
7 8 12 8 6 7 6 6 6 7 7 6 6 6 9 5 4 5 5 4 5 5 5 5 5 6 6 6 7 8 9 7 8 8 8 8 8 7 7 7 7 7 6
6 7 7 7 7 6 7 6 6 7 7 7 5 6 11 6 4 4 4 4 4 4 4 4 4 5 6 7 7 8 8 8 8 8 8 8 8 8 7 7 7 6 6
7 7 7 7 7 10 9 6 6 6 6 6 5 5 4 4 4 4 4 3 3 3 3 4 4 4 4 5 6 7 8 8 8 8 9 8 8 8 7 8 9 8 7
7 7 7 7 7 6 6 6 5 6 5 5 5 4 4 3 3 3 3 2 3 3 3 3 4 5 6 6 5 6 6 6 7 8 10 9 9 8 7 7 8 8 8
6 7 7 7 6 6 6 6 5 5 5 5 5 4 3 3 3 3 2 2 2 2 3 3 3 4 7 7 7 6 9 12 10 7 8 8 8 8 8 8 7 7 7
7 7 6 6 6 5 6 6 5 5 5 5 4 4 3 3 2 2 2 2 2 2 2 2 2 3 5 5 6 8 10 13 14 13 8 7 8 8 8 7 8 7 7
Wind_Direction
24 24 36 26 32 212 196 191 187 181 176 178 182 176 170 170 173 175 174 172 174 166 164 167 169 156 150 149 146 154 163 160 197 196 94 117 128 137 129 114 93 59 81
19 22 34 28 18 18 350 196 179 173 176 179 178 175 175 176 178 180 179 177 177 175 174 169 169 156 154 154 157 165 168 165 173 197 156 138 141 145 135 135 136 116 104
19 21 27 24 15 6 9 28 113 164 165 174 177 181 180 180 180 180 179 178 179 179 176 173 168 162 168 162 162 167 167 162 159 168 175 139 131 130 127 155 183 185 188
17 20 21 14 9 5 6 13 15 106 162 177 182 184 179 179 179 178 176 177 176 174 171 169 167 170 173 167 167 171 165 163 166 176 186 181 173 159 160 184 205 206 215
15 16 12 7 6 7 7 7 6 11 149 177 178 181 179 180 183 178 176 175 169 161 154 154 156 157 160 163 165 167 164 169 176 184 192 184 182 175 196 186 190 177 211
9 6 3 4 4 3 359 355 354 347 317 212 201 193 192 195 187 185 178 174 169 164 162 155 147 145 155 160 161 163 167 175 183 183 192 200 202 194 175 168 159 153 229
4 360 358 357 356 351 345 341 332 320 297 253 224 207 205 198 189 189 185 172 169 169 165 160 161 168 162 153 161 159 163 171 175 172 187 201 193 184 162 162 176 179 193
358 356 354 350 344 340 336 326 315 307 286 268 251 226 210 203 196 191 183 170 164 166 167 168 166 164 169 164 162 161 165 172 175 169 175 178 160 149 156 166 168 132 96
349 346 341 337 330 326 320 312 307 300 288 276 265 245 228 212 199 194 182 166 168 174 173 174 171 173 184 180 168 163 165 171 162 145 138 136 131 137 141 125 131 130 172
333 327 323 320 315 310 304 298 291 283 273 268 261 250 233 222 209 203 190 177 177 179 179 185 190 188 190 186 174 170 179 182 161 150 143 140 136 154 156 151 156 155 163
314 310 308 307 303 296 294 288 279 274 269 257 251 248 238 226 215 211 204 193 186 184 187 189 195 198 196 193 187 182 191 173 162 160 162 164 158 153 141 128 141 155 157
309 307 305 303 300 298 291 287 276 264 261 256 251 251 243 229 220 217 215 212 198 190 192 188 191 196 196 196 194 192 191 172 152 158 165 174 173 169 156 137 122 113 124
306 301 298 299 297 294 288 284 281 269 260 256 249 248 246 233 224 225 224 221 212 201 192 190 190 195 194 196 198 194 186 166 160 172 183 186 178 163 145 130 113 105 91
300 300 298 297 296 294 290 281 271 264 263 259 254 252 248 236 224 216 219 222 218 208 194 193 191 191 185 187 191 193 177 174 174 182 179 169 153 150 156 154 154 155 144
292 291 294 291 289 288 283 276 274 261 261 265 256 250 248 244 234 228 223 218 209 197 173 166 169 171 180 181 181 178 177 182 193 179 173 167 167 167 170 166 160 161 172
291 292 289 288 285 283 285 286 277 273 278 276 271 266 261 255 253 243 235 232 223 205 188 183 187 188 189 188 188 188 189 191 189 181 178 175 175 176 175 169 166 173 188
286 287 286 285 285 283 281 282 289 289 279 277 276 273 270 265 255 247 239 232 226 212 204 194 193 193 192 189 189 190 193 189 181 182 184 181 175 175 174 178 180 186 198
290 287 287 281 280 280 277 275 276 282 287 281 272 271 272 270 261 248 240 231 223 213 203 197 196 193 191 190 189 190 188 181 182 186 185 182 180 180 184 187 189 194 198
292 286 282 280 280 280 278 275 274 272 272 276 277 274 271 270 265 252 236 224 216 212 203 199 195 192 190 189 189 188 185 186 185 185 188 188 187 188 194 195 194 204 200
290 288 289 284 281 280 278 276 276 274 272 270 268 268 268 266 261 250 233 217 215 214 205 203 198 193 190 187 186 186 187 187 188 190 191 191 192 193 198 197 196 196 201
292 291 293 289 280 278 277 275 276 276 274 271 265 261 265 261 255 250 240 228 219 216 210 204 199 194 191 185 184 187 190 193 192 193 192 192 192 196 198 198 198 198 197
292 290 289 289 286 282 279 274 273 274 275 274 271 267 265 262 253 253 247 237 224 215 207 202 201 196 190 188 187 187 192 195 194 193 194 192 192 196 196 196 196 196 195
292 292 292 290 288 289 287 278 275 276 276 276 277 271 264 255 250 253 253 242 226 216 204 201 202 198 191 188 187 189 193 196 194 190 190 192 193 193 192 195 196 193 197
298 295 294 294 292 288 286 285 283 282 281 280 278 272 266 259 255 257 259 251 237 227 212 202 201 198 193 191 192 193 193 187 184 189 189 189 190 190 190 193 195 198 197
303 300 299 298 297 298 298 295 292 292 292 292 290 286 279 270 263 258 256 253 246 238 222 207 200 197 196 195 193 192 194 191 187 184 184 186 187 189 189 191 192 191 195
305 303 301 300 297 297 298 298 298 298 295 295 294 293 292 288 280 270 259 253 245 237 230 217 203 196 196 198 196 194 196 196 193 188 181 182 185 188 187 189 190 191 190